Check out our new BloomSky Weather System.

Active alerts


No alerts


Thunder radar  blitzortung!


Rain radar more information rain snow radar


Visit our other weather sites:

Template documentation
and downloads

And another site



Weather Underground History page Text

Daily Summary for June 8, 2017 Units:  Metric    English   Both
« Previous Day
Next Day »
Daily Weekly Monthly Yearly Custom
  High: Low: Average:
Temperature: 31.6 °C 20.9 °C 26.5 °C
Dew Point: 20.2 °C 17 °C 18.7 °C
Humidity: 85 % 47 % 64 %
Wind Speed: 16.1 km/h 0 km/h 1.8 km/h
Wind Gust: 17.7 km/h - -
Wind:- - SSW
Pressure: 1015.1 hPa 1010.4 hPa -
Precipitation: 0 mm    
Historical Graphs
 
 
Tabular Data for June 8, 2017
Time Temperature Dew Point Pressure Wind Wind Speed Wind Gust Humidity Rainfall Rate (Hourly)
00:04 25.6 °C 20.2 °C 1012.1 hPa ENE 3.2 km/h 9.7 km/h 72 % 0 mm
00:09 25.6 °C 20.2 °C 1012.4 hPa NE 1.6 km/h 9.7 km/h 72 % 0 mm
00:14 25.6 °C 20.2 °C 1012.4 hPa Calm   8 km/h 72 % 0 mm
00:19 25.5 °C 20.1 °C 1012.4 hPa Calm   8 km/h 72 % 0 mm
00:24 25.4 °C 20 °C 1012.4 hPa Calm   6.4 km/h 72 % 0 mm
00:29 25.3 °C 20.1 °C 1012.4 hPa Calm   6.4 km/h 73 % 0 mm
00:34 25.3 °C 20.1 °C 1012.4 hPa Calm   6.4 km/h 73 % 0 mm
00:39 25.2 °C 20 °C 1012.4 hPa Calm   6.4 km/h 73 % 0 mm
00:44 25.1 °C 20.1 °C 1012.4 hPa North 1.6 km/h 6.4 km/h 74 % 0 mm
00:45 25.1 °C 20.1 °C 1012.4 hPa Calm   6.4 km/h 74 % 0 mm
00:50 24.9 °C 19.9 °C 1012.4 hPa NE 1.6 km/h 6.4 km/h 74 % 0 mm
00:55 24.8 °C 20.1 °C 1012.4 hPa Calm   4.8 km/h 75 % 0 mm
01:00 24.7 °C 20.2 °C 1012.4 hPa Calm   4.8 km/h 76 % 0 mm
01:05 24.6 °C 20.1 °C 1012.4 hPa Calm   4.8 km/h 76 % 0 mm
01:10 24.5 °C 20.2 °C 1012.4 hPa Calm   4.8 km/h 77 % 0 mm
01:15 24.4 °C 20.1 °C 1012.4 hPa Calm   3.2 km/h 77 % 0 mm
01:20 24.3 °C 20 °C 1012.4 hPa Calm   3.2 km/h 77 % 0 mm
01:25 24.2 °C 20.1 °C 1012.4 hPa Calm   1.6 km/h 78 % 0 mm
01:30 24.1 °C 20 °C 1012.4 hPa Calm   1.6 km/h 78 % 0 mm
01:35 24 °C 19.9 °C 1012.4 hPa Calm   3.2 km/h 78 % 0 mm
01:40 23.9 °C 20 °C 1012.4 hPa Calm   3.2 km/h 79 % 0 mm
01:45 23.8 °C 19.9 °C 1012.4 hPa NNW 1.6 km/h 3.2 km/h 79 % 0 mm
01:50 23.7 °C 19.8 °C 1012.4 hPa Calm   3.2 km/h 79 % 0 mm
01:55 23.6 °C 19.7 °C 1012.4 hPa Calm   1.6 km/h 79 % 0 mm
02:00 23.6 °C 19.9 °C 1012.4 hPa Calm   1.6 km/h 80 % 0 mm
02:05 23.5 °C 19.8 °C 1012.4 hPa Calm   3.2 km/h 80 % 0 mm
02:10 23.4 °C 19.8 °C 1012.4 hPa Calm   3.2 km/h 80 % 0 mm
02:15 23.4 °C 19.8 °C 1012.4 hPa Calm   3.2 km/h 80 % 0 mm
02:20 23.3 °C 19.7 °C 1012.4 hPa Calm   3.2 km/h 80 % 0 mm
02:25 23.3 °C 19.9 °C 1012.4 hPa Calm   3.2 km/h 81 % 0 mm
02:30 23.2 °C 19.8 °C 1012.4 hPa Calm   3.2 km/h 81 % 0 mm
02:35 23.1 °C 19.7 °C 1012.4 hPa Calm   3.2 km/h 81 % 0 mm
02:40 23.1 °C 19.7 °C 1012.4 hPa Calm   3.2 km/h 81 % 0 mm
02:45 23.1 °C 19.7 °C 1012.4 hPa Calm   3.2 km/h 81 % 0 mm
02:50 22.9 °C 19.7 °C 1012.4 hPa Calm   3.2 km/h 82 % 0 mm
02:55 22.9 °C 19.7 °C 1012.4 hPa North 1.6 km/h 1.6 km/h 82 % 0 mm
03:00 22.8 °C 19.6 °C 1012.4 hPa Calm   1.6 km/h 82 % 0 mm
03:05 22.8 °C 19.6 °C 1012.4 hPa NNW 1.6 km/h 3.2 km/h 82 % 0 mm
03:10 22.8 °C 19.6 °C 1012.4 hPa Calm   3.2 km/h 82 % 0 mm
03:15 22.7 °C 19.5 °C 1012.4 hPa Calm   3.2 km/h 82 % 0 mm
03:20 22.7 °C 19.5 °C 1012.4 hPa North 1.6 km/h 3.2 km/h 82 % 0 mm
03:25 22.6 °C 19.4 °C 1012.4 hPa Calm   3.2 km/h 82 % 0 mm
03:30 22.6 °C 19.4 °C 1012.8 hPa Calm   3.2 km/h 82 % 0 mm
03:35 22.6 °C 19.4 °C 1012.8 hPa Calm   4.8 km/h 82 % 0 mm
03:40 22.4 °C 19.2 °C 1012.8 hPa NNE 1.6 km/h 4.8 km/h 82 % 0 mm
03:45 22.4 °C 19.4 °C 1012.8 hPa Calm   4.8 km/h 83 % 0 mm
03:50 22.4 °C 19.2 °C 1012.8 hPa Calm   3.2 km/h 82 % 0 mm
03:55 22.3 °C 19.1 °C 1012.8 hPa Calm   3.2 km/h 82 % 0 mm
04:00 22.3 °C 19.1 °C 1012.8 hPa NNW 1.6 km/h 3.2 km/h 82 % 0 mm
04:05 22.3 °C 19.1 °C 1012.8 hPa Calm   4.8 km/h 82 % 0 mm
04:10 22.2 °C 19 °C 1012.8 hPa Calm   4.8 km/h 82 % 0 mm
04:15 22.2 °C 19 °C 1012.8 hPa Calm   4.8 km/h 82 % 0 mm
04:20 22.2 °C 19.2 °C 1012.8 hPa Calm   3.2 km/h 83 % 0 mm
04:21 22.2 °C 19.2 °C 1012.8 hPa North 1.6 km/h 3.2 km/h 83 % 0 mm
04:26 22.1 °C 19.1 °C 1012.8 hPa NNW 1.6 km/h 3.2 km/h 83 % 0 mm
04:31 22.1 °C 19.1 °C 1013.1 hPa Calm   3.2 km/h 83 % 0 mm
04:36 21.9 °C 18.9 °C 1013.1 hPa NNW 1.6 km/h 3.2 km/h 83 % 0 mm
04:41 21.9 °C 18.9 °C 1013.1 hPa Calm   3.2 km/h 83 % 0 mm
04:46 21.8 °C 18.8 °C 1013.1 hPa Calm   3.2 km/h 83 % 0 mm
04:51 21.8 °C 18.8 °C 1013.1 hPa Calm   3.2 km/h 83 % 0 mm
04:56 21.7 °C 18.9 °C 1013.1 hPa North 1.6 km/h 3.2 km/h 84 % 0 mm
05:01 21.6 °C 18.8 °C 1013.1 hPa Calm   3.2 km/h 84 % 0 mm
05:06 21.6 °C 18.8 °C 1013.1 hPa Calm   4.8 km/h 84 % 0 mm
05:11 21.5 °C 18.7 °C 1013.1 hPa NNW 1.6 km/h 4.8 km/h 84 % 0 mm
05:16 21.4 °C 18.6 °C 1013.4 hPa Calm   4.8 km/h 84 % 0 mm
05:21 21.3 °C 18.5 °C 1013.4 hPa Calm   3.2 km/h 84 % 0 mm
05:26 21.3 °C 18.5 °C 1013.4 hPa Calm   1.6 km/h 84 % 0 mm
05:31 21.2 °C 18.4 °C 1013.4 hPa Calm   1.6 km/h 84 % 0 mm
05:36 21.2 °C 18.4 °C 1013.4 hPa Calm   1.6 km/h 84 % 0 mm
05:41 21.2 °C 18.4 °C 1013.4 hPa Calm   1.6 km/h 84 % 0 mm
05:46 21.1 °C 18.3 °C 1013.4 hPa Calm   1.6 km/h 84 % 0 mm
05:51 21.1 °C 18.5 °C 1013.8 hPa Calm   1.6 km/h 85 % 0 mm
05:56 21.1 °C 18.5 °C 1013.8 hPa Calm   1.6 km/h 85 % 0 mm
06:01 21 °C 18.4 °C 1013.8 hPa Calm   1.6 km/h 85 % 0 mm
06:06 21 °C 18.4 °C 1013.8 hPa Calm   1.6 km/h 85 % 0 mm
06:09 21 °C 18.4 °C 1013.8 hPa Calm   1.6 km/h 85 % 0 mm
06:14 21.1 °C 18.5 °C 1013.8 hPa Calm   1.6 km/h 85 % 0 mm
06:19 21.1 °C 18.5 °C 1013.8 hPa NE 1.6 km/h 1.6 km/h 85 % 0 mm
06:24 21.1 °C 18.5 °C 1014.1 hPa Calm   1.6 km/h 85 % 0 mm
06:29 21 °C 18.4 °C 1014.1 hPa Calm   1.6 km/h 85 % 0 mm
06:34 21 °C 18.4 °C 1014.1 hPa Calm   1.6 km/h 85 % 0 mm
06:39 20.9 °C 18.3 °C 1014.1 hPa Calm   1.6 km/h 85 % 0 mm
06:44 21 °C 18.4 °C 1014.1 hPa Calm   1.6 km/h 85 % 0 mm
06:49 21 °C 18.4 °C 1014.4 hPa Calm   1.6 km/h 85 % 0 mm
06:54 21.1 °C 18.5 °C 1014.4 hPa Calm   3.2 km/h 85 % 0 mm
06:59 21.1 °C 18.5 °C 1014.4 hPa Calm   3.2 km/h 85 % 0 mm
07:04 21.2 °C 18.6 °C 1014.4 hPa Calm   4.8 km/h 85 % 0 mm
07:09 21.2 °C 18.6 °C 1014.4 hPa Calm   4.8 km/h 85 % 0 mm
07:15 21.3 °C 18.7 °C 1014.4 hPa Calm   4.8 km/h 85 % 0 mm
07:20 21.3 °C 18.5 °C 1014.8 hPa Calm   1.6 km/h 84 % 0 mm
07:21 21.4 °C 18.6 °C 1014.8 hPa Calm   1.6 km/h 84 % 0 mm
07:26 21.4 °C 18.6 °C 1014.4 hPa Calm   3.2 km/h 84 % 0 mm
07:31 21.6 °C 18.8 °C 1014.4 hPa Calm   3.2 km/h 84 % 0 mm
07:36 21.7 °C 18.7 °C 1014.4 hPa Calm   4.8 km/h 83 % 0 mm
07:41 21.9 °C 18.7 °C 1014.4 hPa Calm   4.8 km/h 82 % 0 mm
07:46 22.4 °C 19.2 °C 1014.8 hPa Calm   4.8 km/h 82 % 0 mm
07:51 22.8 °C 19.2 °C 1014.8 hPa Calm   3.2 km/h 80 % 0 mm
07:56 22.9 °C 18.9 °C 1014.8 hPa Calm   3.2 km/h 78 % 0 mm
08:01 23.2 °C 18.9 °C 1014.8 hPa Calm   3.2 km/h 77 % 0 mm
08:06 23.4 °C 18.9 °C 1014.8 hPa Calm   3.2 km/h 76 % 0 mm
08:11 23.8 °C 19.1 °C 1014.8 hPa Calm   4.8 km/h 75 % 0 mm
08:16 24.1 °C 19 °C 1014.8 hPa Calm   4.8 km/h 73 % 0 mm
08:21 24.2 °C 18.8 °C 1014.8 hPa NE 4.8 km/h 4.8 km/h 72 % 0 mm
08:26 24.3 °C 18.7 °C 1014.8 hPa Calm   4.8 km/h 71 % 0 mm
08:31 24.6 °C 19 °C 1014.8 hPa Calm   4.8 km/h 71 % 0 mm
08:36 24.8 °C 18.5 °C 1014.8 hPa Calm   4.8 km/h 68 % 0 mm
08:41 24.9 °C 18.8 °C 1014.8 hPa Calm   4.8 km/h 69 % 0 mm
08:46 25.1 °C 18.3 °C 1014.8 hPa SE 1.6 km/h 8 km/h 66 % 0 mm
08:51 25.3 °C 18.2 °C 1014.8 hPa Calm   8 km/h 65 % 0 mm
08:56 25.6 °C 18 °C 1015.1 hPa Calm   8 km/h 63 % 0 mm
09:01 25.4 °C 17.8 °C 1014.8 hPa ESE 1.6 km/h 6.4 km/h 63 % 0 mm
09:06 25.4 °C 18.1 °C 1015.1 hPa ESE 3.2 km/h 6.4 km/h 64 % 0 mm
09:11 25.7 °C 18.1 °C 1015.1 hPa ESE 4.8 km/h 6.4 km/h 63 % 0 mm
09:16 25.9 °C 18.3 °C 1014.8 hPa ESE 4.8 km/h 8 km/h 63 % 0 mm
09:21 25.8 °C 17.7 °C 1014.8 hPa SSE 9.7 km/h 9.7 km/h 61 % 0 mm
09:26 25.9 °C 17.8 °C 1015.1 hPa ESE 6.4 km/h 9.7 km/h 61 % 0 mm
09:31 26 °C 17.6 °C 1015.1 hPa SE 1.6 km/h 9.7 km/h 60 % 0 mm
09:36 26.3 °C 18.2 °C 1015.1 hPa SSE 4.8 km/h 9.7 km/h 61 % 0 mm
09:42 26.5 °C 18.1 °C 1015.1 hPa SE 4.8 km/h 8 km/h 60 % 0 mm
09:46 26.6 °C 17.9 °C 1015.1 hPa SE 4.8 km/h 9.7 km/h 59 % 0 mm
09:51 26.9 °C 19 °C 1015.1 hPa NNE 3.2 km/h 9.7 km/h 62 % 0 mm
09:56 27.4 °C 18.1 °C 1015.1 hPa Calm   9.7 km/h 57 % 0 mm
10:02 27.7 °C 18.1 °C 1015.1 hPa SSE 6.4 km/h 8 km/h 56 % 0 mm
10:07 27.5 °C 17.9 °C 1015.1 hPa East 1.6 km/h 9.7 km/h 56 % 0 mm
10:12 27.4 °C 17.6 °C 1015.1 hPa SSE 8 km/h 9.7 km/h 55 % 0 mm
10:17 27.4 °C 17.8 °C 1015.1 hPa ESE 1.6 km/h 9.7 km/h 56 % 0 mm
10:22 27.8 °C 18.5 °C 1015.1 hPa NNW 3.2 km/h 9.7 km/h 57 % 0 mm
10:25 28 °C 18.4 °C 1015.1 hPa Calm   9.7 km/h 56 % 0 mm
10:30 28.1 °C 17.9 °C 1015.1 hPa Calm   8 km/h 54 % 0 mm
10:35 28.1 °C 17.9 °C 1015.1 hPa NE 6.4 km/h 9.7 km/h 54 % 0 mm
10:40 27.9 °C 17.7 °C 1015.1 hPa SE 3.2 km/h 9.7 km/h 54 % 0 mm
10:45 28.1 °C 17 °C 1015.1 hPa Calm   9.7 km/h 51 % 0 mm
10:50 28 °C 17.5 °C 1015.1 hPa Calm   8 km/h 53 % 0 mm
10:55 28.3 °C 18.1 °C 1015.1 hPa ESE 4.8 km/h 8 km/h 54 % 0 mm
11:00 28.6 °C 18.7 °C 1015.1 hPa Calm   6.4 km/h 55 % 0 mm
11:05 28.8 °C 17.7 °C 1015.1 hPa NW 4.8 km/h 8 km/h 51 % 0 mm
11:10 28.6 °C 17.8 °C 1015.1 hPa North 1.6 km/h 8 km/h 52 % 0 mm
11:15 28.8 °C 17.3 °C 1015.1 hPa ESE 1.6 km/h 8 km/h 50 % 0 mm
11:20 29 °C 18.5 °C 1015.1 hPa East 1.6 km/h 8 km/h 53 % 0 mm
11:25 29.2 °C 18.3 °C 1015.1 hPa Calm   8 km/h 52 % 0 mm
11:30 29.3 °C 18.4 °C 1015.1 hPa NNW 3.2 km/h 8 km/h 52 % 0 mm
11:35 29.4 °C 18.2 °C 1015.1 hPa NNW 1.6 km/h 8 km/h 51 % 0 mm
11:40 29.2 °C 18.6 °C 1014.8 hPa NE 1.6 km/h 8 km/h 53 % 0 mm
11:45 29.4 °C 18.2 °C 1014.8 hPa East 1.6 km/h 8 km/h 51 % 0 mm
11:50 29.8 °C 18.3 °C 1014.8 hPa ESE 8 km/h 8 km/h 50 % 0 mm
11:55 29.3 °C 17.2 °C 1014.8 hPa NE 6.4 km/h 9.7 km/h 48 % 0 mm
12:00 29.2 °C 17.4 °C 1014.8 hPa NW 4.8 km/h 9.7 km/h 49 % 0 mm
12:05 29.1 °C 17.6 °C 1014.8 hPa Calm   9.7 km/h 50 % 0 mm
12:10 29.4 °C 17.6 °C 1014.4 hPa ESE 3.2 km/h 9.7 km/h 49 % 0 mm
12:15 29.7 °C 18.2 °C 1014.4 hPa NNE 6.4 km/h 9.7 km/h 50 % 0 mm
12:21 29.8 °C 18.6 °C 1014.4 hPa Calm   16.1 km/h 51 % 0 mm
12:26 29.8 °C 17.6 °C 1014.4 hPa West 16.1 km/h 16.1 km/h 48 % 0 mm
12:31 29.8 °C 17.9 °C 1014.4 hPa NW 3.2 km/h 17.7 km/h 49 % 0 mm
12:36 29.8 °C 18.3 °C 1014.4 hPa NW 4.8 km/h 17.7 km/h 50 % 0 mm
12:41 29.8 °C 17.9 °C 1014.1 hPa NW 6.4 km/h 17.7 km/h 49 % 0 mm
12:46 29.6 °C 17.8 °C 1014.1 hPa WNW 1.6 km/h 8 km/h 49 % 0 mm
12:51 29.6 °C 18.1 °C 1014.1 hPa WNW 6.4 km/h 11.3 km/h 50 % 0 mm
12:56 29.8 °C 18.3 °C 1014.1 hPa North 3.2 km/h 11.3 km/h 50 % 0 mm
13:01 29.7 °C 17.8 °C 1014.1 hPa North 3.2 km/h 12.9 km/h 49 % 0 mm
13:06 29.6 °C 17.8 °C 1014.1 hPa NNE 6.4 km/h 12.9 km/h 49 % 0 mm
13:11 29.8 °C 18.6 °C 1014.1 hPa NNW 1.6 km/h 12.9 km/h 51 % 0 mm
13:15 29.8 °C 17.6 °C 1013.8 hPa SSE 3.2 km/h 12.9 km/h 48 % 0 mm
13:20 30 °C 19.1 °C 1013.8 hPa ENE 3.2 km/h 9.7 km/h 52 % 0 mm
13:25 30.3 °C 18.1 °C 1013.8 hPa NNE 1.6 km/h 6.4 km/h 48 % 0 mm
13:30 30.3 °C 18.7 °C 1013.8 hPa Calm   9.7 km/h 50 % 0 mm
13:35 30.4 °C 18.8 °C 1013.8 hPa NW 4.8 km/h 9.7 km/h 50 % 0 mm
13:40 30.4 °C 18.5 °C 1013.8 hPa NW 8 km/h 12.9 km/h 49 % 0 mm
13:45 30.3 °C 18.1 °C 1013.8 hPa Calm   12.9 km/h 48 % 0 mm
13:50 30.5 °C 18.6 °C 1013.4 hPa NNE 1.6 km/h 12.9 km/h 49 % 0 mm
13:55 30.6 °C 19.6 °C 1013.4 hPa NW 3.2 km/h 14.5 km/h 52 % 0 mm
14:00 30.4 °C 19.1 °C 1013.1 hPa ENE 1.6 km/h 14.5 km/h 51 % 0 mm
14:05 30.8 °C 18.8 °C 1013.1 hPa ENE 11.3 km/h 14.5 km/h 49 % 0 mm
14:10 30.6 °C 19.3 °C 1013.1 hPa NNW 8 km/h 12.9 km/h 51 % 0 mm
14:15 30.3 °C 18.4 °C 1013.1 hPa NNW 4.8 km/h 14.5 km/h 49 % 0 mm
14:20 30.5 °C 19.2 °C 1012.8 hPa Calm   14.5 km/h 51 % 0 mm
14:25 30.8 °C 19.2 °C 1012.8 hPa NNW 9.7 km/h 14.5 km/h 50 % 0 mm
14:30 31 °C 19 °C 1012.8 hPa NNW 8 km/h 11.3 km/h 49 % 0 mm
14:35 30.6 °C 18.3 °C 1012.8 hPa South 4.8 km/h 14.5 km/h 48 % 0 mm
14:40 30.7 °C 19.1 °C 1012.8 hPa East 8 km/h 14.5 km/h 50 % 0 mm
14:45 30.6 °C 19 °C 1012.8 hPa NW 1.6 km/h 14.5 km/h 50 % 0 mm
14:50 30.7 °C 19.7 °C 1012.8 hPa North 8 km/h 9.7 km/h 52 % 0 mm
14:55 30.9 °C 19.6 °C 1012.4 hPa North 4.8 km/h 12.9 km/h 51 % 0 mm
15:00 31.1 °C 19.4 °C 1012.4 hPa WNW 1.6 km/h 12.9 km/h 50 % 0 mm
15:02 31.1 °C 19.4 °C 1012.4 hPa North 1.6 km/h 12.9 km/h 50 % 0 mm
15:07 31.2 °C 19.5 °C 1012.4 hPa WSW 1.6 km/h 12.9 km/h 50 % 0 mm
15:12 31 °C 19 °C 1012.4 hPa ENE 1.6 km/h 11.3 km/h 49 % 0 mm
15:17 30.9 °C 18.9 °C 1012.4 hPa NNW 4.8 km/h 11.3 km/h 49 % 0 mm
15:22 30.9 °C 18.9 °C 1012.1 hPa SE 3.2 km/h 11.3 km/h 49 % 0 mm
15:27 30.9 °C 19.3 °C 1012.1 hPa ENE 3.2 km/h 9.7 km/h 50 % 0 mm
15:32 31.2 °C 19.5 °C 1012.1 hPa NNW 4.8 km/h 9.7 km/h 50 % 0 mm
15:37 31.2 °C 18.5 °C 1012.1 hPa WNW 4.8 km/h 12.9 km/h 47 % 0 mm
15:42 31.2 °C 19.2 °C 1012.1 hPa SSE 3.2 km/h 12.9 km/h 49 % 0 mm
15:47 31.6 °C 19.2 °C 1011.7 hPa Calm   12.9 km/h 48 % 0 mm
15:48 31.6 °C 19.9 °C 1011.7 hPa Calm   12.9 km/h 50 % 0 mm
15:53 31.6 °C 18.9 °C 1011.7 hPa ESE 4.8 km/h 11.3 km/h 47 % 0 mm
15:58 31.2 °C 18.9 °C 1011.7 hPa ENE 3.2 km/h 12.9 km/h 48 % 0 mm
16:03 31.2 °C 18.9 °C 1011.7 hPa NE 4.8 km/h 12.9 km/h 48 % 0 mm
16:08 31.1 °C 18.8 °C 1011.7 hPa NE 3.2 km/h 12.9 km/h 48 % 0 mm
16:13 31.1 °C 19.4 °C 1011.7 hPa NNW 4.8 km/h 12.9 km/h 50 % 0 mm
16:18 31.3 °C 19.3 °C 1011.4 hPa NNW 1.6 km/h 12.9 km/h 49 % 0 mm
16:23 31.3 °C 19.6 °C 1011.4 hPa NNE 3.2 km/h 12.9 km/h 50 % 0 mm
16:28 31.2 °C 18.5 °C 1011.4 hPa NW 3.2 km/h 14.5 km/h 47 % 0 mm
16:33 31.1 °C 19.1 °C 1011.4 hPa NW 1.6 km/h 16.1 km/h 49 % 0 mm
16:38 31.2 °C 19.2 °C 1011.4 hPa NNW 3.2 km/h 16.1 km/h 49 % 0 mm
16:43 31.2 °C 18.9 °C 1011.1 hPa NW 3.2 km/h 16.1 km/h 48 % 0 mm
16:48 31.2 °C 19.2 °C 1011.1 hPa Calm   12.9 km/h 49 % 0 mm
16:53 31.4 °C 19.1 °C 1011.1 hPa NW 4.8 km/h 12.9 km/h 48 % 0 mm
16:58 31.4 °C 19.4 °C 1011.1 hPa WNW 1.6 km/h 12.9 km/h 49 % 0 mm
17:03 31.2 °C 19.2 °C 1011.1 hPa Calm   11.3 km/h 49 % 0 mm
17:08 31.5 °C 19.5 °C 1011.1 hPa East 3.2 km/h 9.7 km/h 49 % 0 mm
17:13 31.4 °C 18.7 °C 1011.1 hPa NNW 8 km/h 9.7 km/h 47 % 0 mm
17:18 31.4 °C 19.4 °C 1011.1 hPa NNW 4.8 km/h 14.5 km/h 49 % 0 mm
17:23 31.1 °C 18.8 °C 1011.1 hPa NNW 1.6 km/h 14.5 km/h 48 % 0 mm
17:28 30.6 °C 18.7 °C 1011.1 hPa WNW 4.8 km/h 14.5 km/h 49 % 0 mm
17:33 30.4 °C 18.8 °C 1011.1 hPa Calm   11.3 km/h 50 % 0 mm
17:38 30.2 °C 18.6 °C 1010.7 hPa NW 1.6 km/h 11.3 km/h 50 % 0 mm
17:43 30.7 °C 19.7 °C 1010.7 hPa North 8 km/h 11.3 km/h 52 % 0 mm
17:48 31.1 °C 19.8 °C 1010.7 hPa Calm   11.3 km/h 51 % 0 mm
17:53 31.2 °C 19.5 °C 1010.7 hPa NNW 8 km/h 11.3 km/h 50 % 0 mm
17:58 30.9 °C 18.9 °C 1010.7 hPa NW 1.6 km/h 11.3 km/h 49 % 0 mm
18:00 24.7 °C 17.9 °C 1011.7 hPa Calm   3.2 km/h 66 % 0 mm
18:01 24.7 °C 17.9 °C 1011.7 hPa Calm   11.3 km/h 66 % 0 mm
18:02 24.7 °C 17.9 °C 1011.7 hPa Calm   11.3 km/h 66 % 0 mm
18:03 30.9 °C 19.6 °C 1010.7 hPa North 6.4 km/h 11.3 km/h 51 % 0 mm
18:08 30.8 °C 18.5 °C 1010.4 hPa NNE 4.8 km/h 11.3 km/h 48 % 0 mm
18:13 30.8 °C 18.8 °C 1010.7 hPa NW 4.8 km/h 11.3 km/h 49 % 0 mm
18:18 30.7 °C 19.1 °C 1010.7 hPa North 3.2 km/h 9.7 km/h 50 % 0 mm
18:23 30.6 °C 19 °C 1010.4 hPa North 1.6 km/h 9.7 km/h 50 % 0 mm
18:28 30.6 °C 18.7 °C 1010.4 hPa NW 1.6 km/h 9.7 km/h 49 % 0 mm
18:33 30.6 °C 19 °C 1010.4 hPa North 1.6 km/h 9.7 km/h 50 % 0 mm
18:43 30.4 °C 18.8 °C 1010.4 hPa Calm   9.7 km/h 50 % 0 mm
18:48 30.4 °C 18.8 °C 1010.4 hPa NE 6.4 km/h 9.7 km/h 50 % 0 mm
18:53 30.4 °C 18.8 °C 1010.4 hPa North 4.8 km/h 9.7 km/h 50 % 0 mm
18:58 30.2 °C 18.3 °C 1010.4 hPa ENE 6.4 km/h 8 km/h 49 % 0 mm
19:03 29.9 °C 18.3 °C 1010.4 hPa Calm   11.3 km/h 50 % 0 mm
19:09 29.9 °C 18.7 °C 1010.4 hPa Calm   11.3 km/h 51 % 0 mm
19:14 30 °C 18.4 °C 1010.4 hPa NE 3.2 km/h 11.3 km/h 50 % 0 mm
19:19 29.9 °C 18.3 °C 1010.4 hPa North 1.6 km/h 11.3 km/h 50 % 0 mm
19:22 29.8 °C 18.3 °C 1010.4 hPa North 3.2 km/h 9.7 km/h 50 % 0 mm
19:27 29.4 °C 17.9 °C 1010.4 hPa East 1.6 km/h 8 km/h 50 % 0 mm
19:32 29.2 °C 18 °C 1010.7 hPa NNW 1.6 km/h 11.3 km/h 51 % 0 mm
19:37 28.9 °C 17.7 °C 1010.7 hPa ENE 3.2 km/h 11.3 km/h 51 % 0 mm
19:42 28.9 °C 18.1 °C 1010.7 hPa Calm   11.3 km/h 52 % 0 mm
19:47 28.7 °C 17.9 °C 1010.7 hPa Calm   8 km/h 52 % 0 mm
19:52 28.6 °C 17.8 °C 1010.7 hPa Calm   8 km/h 52 % 0 mm
19:57 28.3 °C 17.5 °C 1010.7 hPa Calm   8 km/h 52 % 0 mm
20:02 28.2 °C 17.7 °C 1010.7 hPa Calm   8 km/h 53 % 0 mm
20:07 28.1 °C 17.6 °C 1010.7 hPa ENE 1.6 km/h 8 km/h 53 % 0 mm
20:12 27.9 °C 17.4 °C 1011.1 hPa NE 3.2 km/h 8 km/h 53 % 0 mm
20:17 27.8 °C 17.6 °C 1011.1 hPa ENE 1.6 km/h 6.4 km/h 54 % 0 mm
20:22 27.6 °C 17.7 °C 1011.1 hPa NNW 1.6 km/h 6.4 km/h 55 % 0 mm
20:27 27.5 °C 17.7 °C 1011.1 hPa Calm   6.4 km/h 55 % 0 mm
20:32 27.4 °C 17.8 °C 1010.7 hPa Calm   6.4 km/h 56 % 0 mm
20:37 27.2 °C 17.7 °C 1010.7 hPa Calm   6.4 km/h 56 % 0 mm
20:42 27.1 °C 17.8 °C 1010.7 hPa Calm   6.4 km/h 57 % 0 mm
20:47 27 °C 18 °C 1010.7 hPa Calm   3.2 km/h 58 % 0 mm
20:52 26.9 °C 17.9 °C 1010.7 hPa Calm   3.2 km/h 58 % 0 mm
20:57 26.8 °C 18.1 °C 1011.1 hPa Calm   3.2 km/h 59 % 0 mm
21:02 26.6 °C 17.9 °C 1011.1 hPa Calm   3.2 km/h 59 % 0 mm
21:07 26.5 °C 18.1 °C 1011.1 hPa Calm   3.2 km/h 60 % 0 mm
21:13 26.4 °C 18 °C 1011.1 hPa North 1.6 km/h 3.2 km/h 60 % 0 mm
21:18 26.3 °C 18.2 °C 1011.1 hPa North 1.6 km/h 3.2 km/h 61 % 0 mm
23:03 24.6 °C 17.8 °C 1011.7 hPa Calm   11.3 km/h 66 % 0 mm
23:08 24.5 °C 18 °C 1012.1 hPa Calm     67 % 0 mm
23:13 24.4 °C 18.1 °C 1012.1 hPa Calm   1.6 km/h 68 % 0 mm
23:18 24.2 °C 17.9 °C 1012.1 hPa Calm   1.6 km/h 68 % 0 mm
23:23 24 °C 18 °C 1012.1 hPa Calm   1.6 km/h 69 % 0 mm
23:28 23.9 °C 17.9 °C 1012.1 hPa Calm     69 % 0 mm
23:33 23.7 °C 17.9 °C 1012.1 hPa Calm     70 % 0 mm
23:38 23.6 °C 18 °C 1011.7 hPa Calm     71 % 0 mm
23:43 23.4 °C 17.8 °C 1011.7 hPa Calm     71 % 0 mm
23:48 23.3 °C 18 °C 1011.7 hPa Calm     72 % 0 mm
23:53 23.1 °C 17.8 °C 1011.7 hPa Calm     72 % 0 mm
23:59 23 °C 17.9 °C 1011.7 hPa Calm     73 % 0 mm
Spring, Texas: Villages of Bridgestone
Compliments of Weather Underground - 2.75 mb

Script developed by  Jim McMurry - jmcmurry@mwt.net Adapted for the template by  Wim van der Kuil - Leuven-Template.eu

You find our weather info also at:

UK Metoffice

WeatherCloud

Weather Underground

Mid-South Weather Network

AWEKAS

Citizen Weather Observer Program (CWOP)

HAMweather, WeatherForYou, PWS Weather

Equipment we use:

Weather-station
Davis Vantage Vue

Weather-program
Meteohub

Weather-server
Debian 7.9 x86 (Guest)

Provider
DreamHost

Davis Vantage Vue

Meteohub

Debian 7.9 x86 (Guest)

DreamHost